Vorticity
6 6 6 6 6 7 7 7 7 9 11 19 11 7 5 9 11 13 13 13 12 14 15 11 14 17 9 8 8 8 12 30 -18 44 -32 -31 22 11 14 1 5 -8 2 10 5 1 11
6 6 6 6 7 6 7 7 7 9 12 16 16 8 6 10 12 15 10 13 15 17 12 13 14 11 6 5 5 6 10 10 21 31 15 -27 40 7 24 8 3 9 11 8 2 2 7
6 6 7 6 7 6 7 8 7 10 11 16 19 10 7 9 15 17 7 12 15 15 12 12 12 11 6 2 10 8 7 7 24 24 16 26 34 -31 39 24 9 24 11 6 -9 13 11
6 6 6 7 6 7 7 7 8 10 11 16 19 11 7 6 17 17 8 18 19 14 11 13 11 8 9 11 2 12 13 22 47 7 38 -10 48 -30 23 24 11 26 29 -2 -3 2 13
6 6 6 7 6 7 7 7 8 9 11 15 21 9 7 7 19 15 9 19 8 23 6 16 9 -0 -5 8 10 9 15 15 33 24 16 -2 49 -6 -8 29 -8 26 23 -9 6 -8 -2
6 7 7 7 7 6 7 7 8 10 10 14 20 11 6 7 22 17 15 21 -7 13 22 -9 19 16 -11 19 14 15 23 28 20 25 2 53 -24 19 -6 4 29 17 27 3 15 4 3
6 7 7 7 7 7 7 7 8 9 10 13 19 12 8 7 21 22 15 21 -6 -2 15 10 7 6 22 17 1 10 16 35 -5 16 6 47 -16 12 1 5 -7 8 21 5 17 24 -5
6 8 8 7 7 8 7 8 8 9 10 12 15 13 11 10 12 14 11 24 28 -10 5 10 7 11 17 -0 18 20 24 18 -4 19 17 16 2 17 -6 8 16 31 6 8 11 12 -0
8 8 9 8 8 9 7 8 9 9 10 11 13 15 15 16 11 25 18 20 18 -1 -1 11 12 10 22 -1 7 9 37 44 45 11 54 -14 28 -7 18 2 28 21 2 1 -13 10 1
7 8 9 8 8 9 9 7 9 9 10 9 13 13 17 16 12 28 27 -4 15 16 -8 -2 16 5 40 7 -7 21 37 26 13 13 -30 24 -18 21 4 -5 19 8 12 16 7 7 -4
8 8 8 9 8 9 10 7 9 10 9 8 14 10 17 12 21 15 36 9 22 13 -1 13 13 9 44 33 30 54 19 33 37 5 -8 52 13 11 15 7 13 15 -3 7 11 12 -5
9 9 8 8 9 9 11 9 9 10 9 8 8 11 17 16 17 19 27 8 8 6 -19 20 11 23 9 23 32 49 37 -14 33 23 22 8 15 3 -9 13 7 22 9 7 17 -6 -21
6 8 10 10 11 10 10 11 9 11 8 9 4 14 15 13 19 26 26 14 -10 23 15 -13 -1 -0 10 10 18 23 15 -16 7 -29 -5 9 4 37 -4 5 15 -0 15 -2 5 8 8
6 10 8 10 11 11 10 11 10 11 9 8 4 16 5 19 33 26 27 16 25 1 29 10 5 10 -14 -10 29 31 11 7 -20 67 -3 -7 1 16 7 12 16 3 -14 -13 3 11 14
6 6 8 13 13 14 12 11 11 12 10 10 11 5 11 12 14 13 26 20 11 12 4 20 -11 -7 2 4 9 -28 -6 13 19 13 -14 -5 46 11 10 6 5 43 19 -0 5 8 -3
3 5 8 10 16 14 14 14 10 12 12 11 7 7 14 6 9 8 18 26 25 18 16 22 6 19 14 19 14 -1 18 31 -4 24 -0 34 24 -2 13 -0 -9 -1 4 7 29 5 7
3 4 10 10 14 16 15 15 13 11 14 9 8 9 6 24 -6 10 17 13 3 16 21 12 17 7 10 5 10 11 11 20 23 16 30 -1 24 39 -3 9 -3 19 -15 9 -0 12 -2
3 3 4 4 10 16 15 15 17 13 13 13 8 10 7 -3 12 10 9 9 3 10 16 8 7 8 12 11 11 5 12 33 30 17 1 -7 45 32 26 -4 -7 -17 23 -22 -17 16 9
4 2 1 2 2 9 15 14 17 16 14 15 13 -1 7 6 13 5 15 11 10 6 20 5 18 14 16 9 -4 -1 -2 2 28 4 5 6 52 -19 54 -18 19 10 5 14 -13 -1 1
5 4 2 2 5 4 12 15 19 20 12 15 10 6 -12 12 8 16 -7 12 10 12 10 7 16 20 7 14 19 15 1 4 3 15 20 17 2 -9 11 45 14 -7 4 17 3 -0 6
4 4 1 3 -1 10 6 18 18 22 17 17 16 1 9 1 8 7 10 8 11 11 8 25 9 13 24 4 6 9 12 4 10 2 20 18 3 -6 8 19 13 34 6 -6 -0 1 -10
3 5 3 -0 -4 10 2 13 12 20 23 23 10 14 -4 4 6 7 8 8 11 6 12 7 8 9 16 16 27 17 9 16 7 12 3 5 31 16 -9 5 24 17 48 -6 -4 -4 16
3 4 4 5 -5 -2 12 -0 17 8 14 20 11 8 17 7 4 7 5 6 8 11 5 9 10 10 5 5 6 9 10 15 14 17 14 9 2 23 16 9 20 33 22 30 8 7 3
4 4 4 5 -0 2 10 9 3 14 12 17 18 9 10 3 7 7 6 5 7 10 8 9 10 11 8 5 5 6 4 6 10 12 16 14 10 2 11 21 2 21 30 18 15 10 4
4 4 4 4 8 -6 2 11 6 7 10 9 19 20 10 15 -0 9 5 4 8 7 10 6 12 10 10 7 13 12 13 13 8 7 13 13 13 10 8 11 -5 11 29 14 19 26 16
3 3 4 4 6 -1 -12 -3 17 8 13 6 10 17 20 14 3 11 9 6 6 8 6 11 5 11 12 12 14 5 11 5 16 13 8 10 15 -11 17 8 -2 16 2 36 13 17 16
3 4 4 6 5 10 -11 -9 11 17 1 14 8 11 19 17 14 17 7 9 9 5 10 2 3 15 6 13 11 14 11 6 17 12 12 14 15 7 8 7 21 8 18 6 11 15 28
3 3 3 5 7 6 -3 -19 -6 12 11 13 10 11 12 16 19 16 1 -3 8 13 4 7 17 8 5 17 13 8 10 7 13 3 5 6 8 14 20 8 21 7 20 3 10 7 12
3 3 4 5 8 7 5 -5 -15 13 16 7 8 15 15 18 10 31 20 -2 5 16 14 4 6 8 9 14 7 7 5 12 1 12 19 16 -4 -2 -7 12 1 12 7 14 7 9 9
Height
3106 3101 3095 3088 3081 3073 3067 3057 3048 3039 3030 3021 3015 3010 3004 2997 2991 2985 2980 2974 2971 2967 2963 2961 2959 2956 2956 2957 2958 2959 2959 2962 2969 2973 2977 2991 3000 3013 3020 3032 3045 3051 3062 3074 3085 3090 3096
3105 3100 3093 3087 3079 3071 3064 3055 3046 3036 3026 3018 3012 3006 3001 2994 2987 2982 2977 2972 2968 2964 2961 2960 2958 2957 2957 2958 2959 2960 2960 2960 2962 2968 2975 2983 2997 3012 3021 3029 3040 3047 3061 3074 3081 3087 3093
3103 3098 3092 3085 3078 3070 3062 3053 3044 3034 3024 3015 3009 3003 2998 2991 2984 2978 2974 2970 2967 2963 2960 2959 2958 2957 2957 2959 2957 2957 2957 2955 2957 2962 2974 2985 2995 3010 3019 3030 3042 3048 3062 3073 3079 3084 3092
3103 3097 3091 3085 3077 3069 3060 3052 3043 3033 3023 3014 3006 3001 2995 2988 2982 2976 2973 2969 2966 2963 2960 2958 2957 2957 2956 2955 2953 2952 2951 2949 2949 2955 2970 2982 2992 3009 3019 3029 3044 3050 3063 3067 3075 3082 3089
3103 3097 3091 3084 3075 3067 3059 3051 3042 3032 3022 3013 3004 2998 2992 2987 2980 2975 2971 2968 2966 2963 2961 2959 2958 2957 2956 2953 2950 2950 2948 2948 2950 2953 2968 2976 2989 3005 3017 3025 3041 3048 3052 3061 3072 3080 3087
3103 3097 3090 3083 3075 3067 3058 3050 3041 3032 3021 3012 3003 2996 2991 2984 2978 2973 2970 2968 2966 2964 2962 2960 2957 2959 2956 2952 2948 2949 2946 2944 2950 2961 2969 2977 2990 3001 3014 3022 3029 3039 3049 3060 3066 3076 3083
3103 3097 3090 3082 3075 3067 3058 3049 3041 3031 3022 3012 3003 2996 2989 2983 2977 2972 2969 2966 2968 2967 2963 2960 2959 2956 2954 2951 2946 2945 2942 2942 2947 2958 2968 2976 2985 2997 3009 3021 3030 3040 3046 3056 3066 3074 3084
3103 3097 3090 3082 3074 3066 3058 3050 3041 3032 3023 3013 3004 2996 2989 2981 2976 2971 2967 2965 2965 2967 2964 2960 2957 2954 2953 2949 2945 2940 2941 2946 2953 2960 2970 2981 2993 3001 3014 3023 3034 3044 3051 3060 3068 3076 3084
3104 3097 3090 3082 3074 3066 3058 3051 3042 3033 3024 3014 3005 2996 2989 2981 2974 2969 2966 2965 2964 2965 2964 2963 2959 2954 2951 2948 2943 2939 2941 2945 2953 2964 2973 2982 2995 3010 3018 3028 3035 3045 3051 3058 3066 3075 3083
3104 3098 3090 3082 3074 3066 3058 3051 3043 3034 3026 3017 3007 2997 2990 2983 2974 2967 2965 2964 2963 2964 2965 2966 2960 2957 2951 2946 2946 2944 2944 2951 2962 2970 2984 2994 3005 3011 3021 3029 3037 3045 3056 3061 3069 3074 3078
3105 3098 3091 3083 3075 3067 3060 3052 3044 3035 3027 3020 3011 3001 2992 2982 2976 2967 2967 2965 2964 2966 2972 2972 2963 2957 2953 2950 2952 2949 2951 2956 2964 2977 2986 3001 3010 3018 3027 3033 3041 3047 3056 3062 3068 3073 3078
3106 3099 3092 3084 3076 3067 3061 3053 3046 3038 3029 3021 3013 3005 2997 2990 2981 2971 2969 2970 2968 2972 2981 2976 2968 2961 2956 2955 2952 2957 2959 2967 2975 2986 2999 3004 3016 3024 3030 3036 3042 3048 3057 3066 3070 3074 3077
3107 3100 3092 3084 3077 3069 3061 3055 3048 3041 3032 3023 3016 3009 3000 2994 2986 2978 2975 2976 2972 2982 2990 2987 2976 2969 2965 2963 2963 2967 2971 2975 2985 2995 3005 3014 3021 3027 3036 3038 3044 3049 3055 3064 3074 3076 3074
3109 3101 3094 3085 3077 3070 3063 3056 3050 3043 3037 3027 3021 3014 3006 2997 2992 2987 2981 2975 2971 2994 2993 2991 2985 2983 2976 2975 2975 2977 2981 2985 2993 2998 3006 3016 3028 3030 3035 3039 3042 3048 3049 3053 3069 3073 3071
3111 3103 3095 3087 3079 3071 3065 3058 3052 3046 3039 3032 3026 3021 3012 3004 2999 2996 2983 2964 2994 2997 2997 2994 2992 2991 2987 2987 2986 2989 2994 2999 3005 3009 3014 3020 3025 3029 3035 3039 3046 3048 3053 3056 3062 3066 3069
3113 3106 3098 3090 3081 3073 3067 3060 3053 3048 3042 3037 3031 3024 3015 3010 3005 3001 2980 2987 3000 3000 2999 2997 2995 2997 2995 2994 2995 2996 3000 3007 3007 3011 3014 3020 3026 3031 3036 3042 3045 3047 3053 3055 3056 3067 3068
3115 3108 3101 3093 3084 3075 3068 3062 3056 3049 3044 3039 3034 3026 3021 3017 3013 3002 2992 3000 3003 3003 3001 3001 2998 3000 3001 2998 3000 3000 3009 3012 3012 3014 3015 3018 3025 3032 3035 3037 3040 3047 3049 3052 3055 3058 3062
3115 3110 3103 3095 3086 3077 3069 3062 3058 3052 3046 3041 3036 3028 3025 3025 3017 3005 3007 3008 3008 3007 3005 3002 3002 3002 3002 3001 3003 3005 3008 3010 3013 3015 3019 3021 3026 3030 3030 3034 3040 3042 3046 3049 3050 3056 3056
3115 3110 3104 3097 3090 3080 3071 3064 3057 3052 3048 3043 3038 3033 3030 3027 3018 3016 3016 3018 3015 3014 3011 3009 3007 3007 3007 3006 3009 3010 3013 3015 3015 3017 3018 3020 3026 3032 3042 3046 3042 3042 3045 3048 3050 3051 3052
3114 3109 3104 3098 3091 3082 3074 3066 3059 3053 3048 3045 3039 3037 3034 3029 3026 3025 3022 3020 3019 3018 3016 3015 3013 3011 3010 3009 3009 3012 3014 3016 3017 3018 3019 3020 3022 3023 3025 3026 3034 3038 3041 3044 3047 3049 3049
3113 3108 3104 3100 3093 3085 3076 3068 3061 3055 3050 3048 3043 3040 3038 3036 3031 3029 3027 3025 3024 3023 3022 3020 3017 3015 3014 3011 3010 3010 3013 3015 3018 3019 3021 3023 3024 3026 3028 3029 3031 3035 3038 3041 3043 3047 3049
3111 3107 3102 3098 3093 3085 3077 3071 3065 3059 3054 3051 3046 3045 3041 3038 3036 3034 3030 3028 3026 3025 3025 3023 3022 3021 3019 3019 3020 3019 3018 3019 3020 3022 3022 3023 3024 3027 3029 3028 3030 3031 3033 3038 3041 3044 3045
3110 3105 3101 3097 3093 3087 3079 3072 3067 3061 3057 3052 3050 3047 3044 3042 3038 3036 3034 3031 3028 3026 3025 3024 3024 3024 3024 3024 3022 3021 3021 3021 3021 3020 3021 3023 3024 3027 3027 3027 3028 3030 3028 3030 3033 3037 3039
3108 3103 3099 3095 3092 3087 3080 3072 3068 3062 3058 3055 3053 3050 3047 3044 3041 3038 3035 3033 3032 3029 3028 3026 3025 3025 3026 3025 3024 3023 3022 3021 3020 3019 3018 3020 3021 3023 3023 3024 3025 3019 3020 3022 3026 3030 3032
3105 3101 3097 3093 3090 3086 3081 3076 3069 3065 3060 3056 3052 3050 3048 3045 3042 3039 3037 3034 3032 3031 3029 3027 3026 3025 3024 3023 3023 3022 3021 3023 3020 3018 3017 3017 3018 3019 3020 3020 3019 3016 3016 3017 3018 3022 3024
3100 3097 3094 3090 3088 3085 3081 3077 3071 3065 3061 3056 3052 3049 3046 3045 3043 3039 3037 3035 3033 3031 3030 3028 3026 3024 3023 3022 3022 3021 3021 3019 3017 3014 3014 3015 3015 3017 3018 3017 3017 3011 3011 3014 3016 3017 3019
3095 3092 3089 3086 3084 3082 3079 3075 3072 3065 3061 3056 3051 3048 3045 3041 3040 3038 3037 3035 3032 3031 3029 3028 3026 3024 3023 3021 3020 3021 3020 3019 3017 3016 3015 3014 3013 3013 3015 3014 3010 3010 3009 3010 3014 3016 3013
3088 3086 3083 3081 3079 3077 3075 3072 3070 3065 3059 3056 3051 3046 3044 3041 3037 3035 3034 3033 3031 3029 3028 3027 3026 3023 3021 3019 3019 3019 3018 3018 3017 3016 3013 3014 3012 3009 3010 3010 3008 3006 3006 3010 3008 3008 3009
3079 3079 3077 3076 3074 3071 3069 3067 3066 3063 3056 3052 3048 3044 3040 3037 3035 3032 3030 3029 3028 3026 3026 3024 3023 3021 3020 3018 3017 3016 3016 3015 3013 3013 3012 3011 3010 3008 3007 3003 3001 3002 3003 3003 3004 3005 3007